CW2401 Weather Reports


Display with metric or nautical units.
time (UTC)temp
F
wind
direction
speed
MPH
gust
MPH
rain 1hr
in
rain 24hr
in
rain mn
in
humidity
%
barometer
mb
20260506003445 74 81 0.0 3.0 0.00 0.00 0.00 54 1014.6
20260506003245 74 81 0.0 3.0 0.00 0.00 0.00 54 1014.6
20260506002843 75 87 0.0 2.0 0.00 0.00 0.00 54 1014.6
20260506002641 75 87 0.0 3.0 0.00 0.00 0.00 54 1014.5
20260506002439 75 87 0.0 3.0 0.00 0.00 0.00 53 1014.5
20260506002240 75 87 0.0 3.0 0.00 0.00 0.00 53 1014.6
20260506002037 75 87 0.0 3.0 0.00 0.00 0.00 54 1014.5
20260506001836 75 61 0.0 3.0 0.00 0.00 0.00 53 1014.5
20260506001635 75 85 0.0 3.0 0.00 0.00 0.00 53 1014.5
20260506001435 75 85 0.0 3.0 0.00 0.00 0.00 53 1014.5
20260506001233 75 5 1.0 3.0 0.00 0.00 0.00 53 1014.5
20260506001034 75 5 1.0 3.0 0.00 0.00 0.00 53 1014.4
20260506000834 76 5 1.0 3.0 0.00 0.00 0.00 53 1014.4
20260506000634 76 5 1.0 3.0 0.00 0.00 0.00 52 1014.3
20260506000434 76 77 1.0 3.0 0.00 0.00 0.00 52 1014.3
20260506000235 76 75 1.0 3.0 0.00 0.00 0.00 52 1014.3
20260506000034 76 65 1.0 2.0 0.00 0.00 0.00 52 1014.3
20260505235836 76 65 1.0 2.0 0.00 0.00 0.00 52 1014.3
20260505235636 76 113 1.0 2.0 0.00 0.00 0.00 51 1014.2
20260505235435 76 114 1.0 2.0 0.00 0.00 0.00 51 1014.2
20260505235236 76 113 1.0 2.0 0.00 0.00 0.00 51 1014.2
20260505235036 76 57 1.0 2.0 0.00 0.00 0.00 51 1014.2
20260505234834 76 92 1.0 2.0 0.00 0.00 0.00 51 1014.2
20260505234233 77 92 1.0 4.0 0.00 0.00 0.00 50 1014.2
20260505233830 77 115 0.0 4.0 0.00 0.00 0.00 50 1014.1
20260505233428 77 101 0.0 2.0 0.00 0.00 0.00 50 1014.1
20260505233228 77 104 0.0 1.0 0.00 0.00 0.00 49 1014.1
20260505233029 77 103 0.0 1.0 0.00 0.00 0.00 49 1014.1
20260505232825 77 70 0.0 3.0 0.00 0.00 0.00 49 1014.1
20260505232621 77 70 0.0 3.0 0.00 0.00 0.00 49 1014.1
20260505232419 77 70 1.0 3.0 0.00 0.00 0.00 49 1014.2
20260505232218 78 70 1.0 3.0 0.00 0.00 0.00 49 1014.1
20260505232017 78 17 1.0 3.0 0.00 0.00 0.00 49 1014.1
20260505231817 78 59 1.0 4.0 0.00 0.00 0.00 49 1014.1
20260505231412 78 57 1.0 4.0 0.00 0.00 0.00 49 1014.1
20260505231211 78 56 1.0 5.0 0.00 0.00 0.00 49 1014.1
20260505230813 78 74 2.0 7.0 0.00 0.00 0.00 48 1014.1
20260505230613 78 73 2.0 7.0 0.00 0.00 0.00 48 1014.1
20260505230413 78 168 1.0 7.0 0.00 0.00 0.00 47 1014.1
20260505230211 78 119 1.0 7.0 0.00 0.00 0.00 48 1014.1
20260505230012 78 69 1.0 6.0 0.00 0.00 0.00 47 1014.2
20260505225813 78 78 1.0 6.0 0.00 0.00 0.00 47 1014.2
20260505225612 78 126 1.0 3.0 0.00 0.00 0.00 48 1014.0
20260505225211 78 329 1.0 4.0 0.00 0.00 0.00 47 1014.2
20260505225010 78 328 1.0 4.0 0.00 0.00 0.00 47 1014.1
20260505224610 78 92 1.0 4.0 0.00 0.00 0.00 47 1014.2
20260505224210 78 148 1.0 3.0 0.00 0.00 0.00 47 1014.2
20260505223810 78 34 1.0 3.0 0.00 0.00 0.00 47 1014.2
20260505223610 78 34 1.0 3.0 0.00 0.00 0.00 47 1014.2
20260505223209 78 86 1.0 4.0 0.00 0.00 0.00 47 1014.2
20260505223012 78 311 1.0 4.0 0.00 0.00 0.00 47 1014.3
20260505222811 78 271 1.0 4.0 0.00 0.00 0.00 47 1014.3
20260505222609 78 271 1.0 5.0 0.00 0.00 0.00 48 1014.3
20260505222408 79 271 1.0 5.0 0.00 0.00 0.00 47 1014.3
20260505222208 78 103 1.0 5.0 0.00 0.00 0.00 46 1014.3
20260505222009 79 41 1.0 5.0 0.00 0.00 0.00 46 1014.3
20260505221809 79 106 1.0 5.0 0.00 0.00 0.00 47 1014.3
20260505221607 79 120 1.0 5.0 0.00 0.00 0.00 46 1014.3
20260505221405 79 30 1.0 5.0 0.00 0.00 0.00 46 1014.3
20260505221206 79 156 1.0 5.0 0.00 0.00 0.00 46 1014.4
20260505221006 79 123 2.0 5.0 0.00 0.00 0.00 46 1014.4
20260505220805 79 141 2.0 9.0 0.00 0.00 0.00 46 1014.5
20260505220606 79 10 2.0 9.0 0.00 0.00 0.00 46 1014.4
20260505220407 79 36 2.0 9.0 0.00 0.00 0.00 45 1014.4
20260505220205 79 30 2.0 9.0 0.00 0.00 0.00 46 1014.4
20260505220004 79 300 2.0 9.0 0.00 0.00 0.00 46 1014.5
20260505215805 79 295 1.0 6.0 0.00 0.00 0.00 46 1014.5
20260505215604 79 193 1.0 6.0 0.00 0.00 0.00 46 1014.5
20260505215403 79 192 2.0 6.0 0.00 0.00 0.00 46 1014.5
20260505215204 79 310 2.0 6.0 0.00 0.00 0.00 46 1014.5
20260505215003 79 306 2.0 7.0 0.00 0.00 0.00 45 1014.4
20260505214803 79 209 2.0 7.0 0.00 0.00 0.00 45 1014.4
20260505214604 79 142 2.0 7.0 0.00 0.00 0.00 45 1014.4
20260505214404 80 119 2.0 7.0 0.00 0.00 0.00 44 1014.5
20260505214204 80 85 2.0 7.0 0.00 0.00 0.00 45 1014.4
20260505214005 80 103 2.0 6.0 0.00 0.00 0.00 45 1014.5
20260505213806 80 103 2.0 6.0 0.00 0.00 0.00 45 1014.4
20260505213604 80 150 2.0 6.0 0.00 0.00 0.00 45 1014.4
20260505213404 80 109 2.0 6.0 0.00 0.00 0.00 45 1014.4
20260505213205 80 116 2.0 6.0 0.00 0.00 0.00 46 1014.4
20260505213004 80 81 2.0 6.0 0.00 0.00 0.00 46 1014.4
20260505212803 80 161 1.0 6.0 0.00 0.00 0.00 45 1014.4
20260505212606 80 200 1.0 5.0 0.00 0.00 0.00 46 1014.4
20260505212404 80 343 1.0 5.0 0.00 0.00 0.00 45 1014.5
20260505212206 80 88 2.0 5.0 0.00 0.00 0.00 45 1014.6
20260505212005 80 81 2.0 5.0 0.00 0.00 0.00 45 1014.6
20260505211604 80 41 2.0 4.0 0.00 0.00 0.00 46 1014.5
20260505211405 80 203 2.0 5.0 0.00 0.00 0.00 45 1014.5
20260505211204 80 119 2.0 6.0 0.00 0.00 0.00 45 1014.4
20260505211005 80 124 2.0 6.0 0.00 0.00 0.00 45 1014.4
20260505210804 80 124 2.0 6.0 0.00 0.00 0.00 45 1014.4
20260505210604 80 122 1.0 6.0 0.00 0.00 0.00 45 1014.4
20260505210405 80 109 1.0 6.0 0.00 0.00 0.00 44 1014.5
20260505210004 80 138 2.0 5.0 0.00 0.00 0.00 46 1014.6
20260505205806 80 80 2.0 5.0 0.00 0.00 0.00 46 1014.6
20260505205605 80 326 2.0 5.0 0.00 0.00 0.00 46 1014.5
20260505205204 80 45 2.0 5.0 0.00 0.00 0.00 45 1014.6
20260505205003 79 157 2.0 5.0 0.00 0.00 0.00 47 1014.6
20260505204604 79 119 2.0 5.0 0.00 0.00 0.00 45 1014.5
20260505204403 79 117 2.0 4.0 0.00 0.00 0.00 44 1014.5
20260505204204 79 130 2.0 5.0 0.00 0.00 0.00 45 1014.6
20260505204003 79 73 2.0 5.0 0.00 0.00 0.00 45 1014.7
20260505203604 79 259 2.0 6.0 0.00 0.00 0.00 47 1014.7
20260505203404 79 55 2.0 6.0 0.00 0.00 0.00 46 1014.7
20260505203203 79 11 2.0 6.0 0.00 0.00 0.00 46 1014.7
20260505203004 79 221 2.0 6.0 0.00 0.00 0.00 45 1014.7
20260505202604 80 96 2.0 5.0 0.00 0.00 0.00 47 1014.9
20260505202403 80 107 2.0 5.0 0.00 0.00 0.00 47 1014.8
20260505202005 80 72 2.0 6.0 0.00 0.00 0.00 46 1014.8
20260505201602 80 191 2.0 6.0 0.00 0.00 0.00 46 1014.8
20260505201400 80 340 2.0 6.0 0.00 0.00 0.00 46 1015.0
20260505200955 80 35 2.0 6.0 0.00 0.00 0.00 45 1014.9
20260505200754 80 313 2.0 6.0 0.00 0.00 0.00 45 1015.1
20260505200551 80 136 2.0 6.0 0.00 0.00 0.00 45 1015.1
20260505200351 80 123 2.0 6.0 0.00 0.00 0.00 45 1015.0
20260505200149 80 129 2.0 4.0 0.00 0.00 0.00 45 1015.0
20260505195750 80 346 2.0 4.0 0.00 0.00 0.00 46 1014.9
20260505195550 80 86 2.0 5.0 0.00 0.00 0.00 45 1014.9
20260505195348 80 275 2.0 7.0 0.00 0.00 0.00 46 1015.0
20260505195147 80 271 2.0 7.0 0.00 0.00 0.00 45 1014.9
20260505194948 79 279 2.0 7.0 0.00 0.00 0.00 45 1014.9
20260505194747 79 49 3.0 7.0 0.00 0.00 0.00 45 1015.1
20260505194547 79 98 3.0 7.0 0.00 0.00 0.00 45 1015.0
20260505194347 79 99 3.0 7.0 0.00 0.00 0.00 45 1015.1
20260505194148 79 103 3.0 7.0 0.00 0.00 0.00 44 1015.2
20260505193949 79 105 2.0 7.0 0.00 0.00 0.00 44 1015.2
20260505193746 79 189 2.0 7.0 0.00 0.00 0.00 45 1015.2
20260505193544 79 78 2.0 7.0 0.00 0.00 0.00 45 1015.3
20260505193345 79 165 1.0 7.0 0.00 0.00 0.00 45 1015.3
20260505193144 79 80 2.0 7.0 0.00 0.00 0.00 45 1015.4
20260505192944 79 102 2.0 6.0 0.00 0.00 0.00 45 1015.5
20260505192743 79 106 2.0 6.0 0.00 0.00 0.00 45 1015.5
20260505192542 79 169 3.0 7.0 0.00 0.00 0.00 45 1015.5
20260505192342 80 5 3.0 7.0 0.00 0.00 0.00 44 1015.6
20260505191942 80 148 2.0 7.0 0.00 0.00 0.00 44 1015.7
20260505191743 80 62 2.0 7.0 0.00 0.00 0.00 44 1015.7
20260505191543 79 119 2.0 8.0 0.00 0.00 0.00 44 1015.9
20260505191342 79 103 2.0 8.0 0.00 0.00 0.00 45 1015.9
20260505191141 79 169 2.0 8.0 0.00 0.00 0.00 44 1015.9
20260505190942 79 244 2.0 8.0 0.00 0.00 0.00 43 1016.1
20260505190741 79 205 2.0 8.0 0.00 0.00 0.00 43 1015.9
20260505190337 79 222 2.0 5.0 0.00 0.00 0.00 45 1015.9
20260505190135 79 199 2.0 5.0 0.00 0.00 0.00 45 1015.9
20260505185735 79 142 2.0 5.0 0.00 0.00 0.00 45 1016.1
20260505185532 79 84 2.0 5.0 0.00 0.00 0.00 45 1016.1
20260505185332 79 71 2.0 5.0 0.00 0.00 0.00 44 1016.2
20260505184929 80 106 2.0 7.0 0.00 0.00 0.00 43 1016.3
20260505184728 80 117 2.0 7.0 0.00 0.00 0.00 43 1016.3
20260505184528 80 52 2.0 7.0 0.00 0.00 0.00 45 1016.3
20260505184326 79 167 2.0 7.0 0.00 0.00 0.00 45 1016.3
20260505184125 79 115 2.0 5.0 0.00 0.00 0.00 46 1016.3
20260505183927 79 317 2.0 4.0 0.00 0.00 0.00 45 1016.4
20260505183724 79 117 2.0 6.0 0.00 0.00 0.00 44 1016.3
20260505183523 79 117 2.0 6.0 0.00 0.00 0.00 44 1016.4
20260505182921 79 100 2.0 7.0 0.00 0.00 0.00 44 1016.4
20260505182717 79 53 2.0 7.0 0.00 0.00 0.00 44 1016.5
20260505182517 79 101 2.0 7.0 0.00 0.00 0.00 44 1016.6
20260505182117 78 12 2.0 5.0 0.00 0.00 0.00 45 1016.6
20260505181715 78 92 2.0 5.0 0.00 0.00 0.00 44 1016.5
20260505181513 78 92 2.0 5.0 0.00 0.00 0.00 44 1016.6
20260505181313 78 227 2.0 3.0 0.00 0.00 0.00 45 1016.7
20260505180915 78 232 2.0 5.0 0.00 0.00 0.00 43 1016.7
20260505180713 78 267 2.0 5.0 0.00 0.00 0.00 43 1016.8
20260505180515 79 302 2.0 6.0 0.00 0.00 0.00 43 1016.8
20260505180313 79 291 2.0 6.0 0.00 0.00 0.00 42 1016.8
20260505180114 79 324 2.0 6.0 0.00 0.00 0.00 43 1016.9
20260505175911 79 185 2.0 6.0 0.00 0.00 0.00 44 1016.9
20260505175713 79 5 2.0 6.0 0.00 0.00 0.00 44 1016.9
20260505175511 79 80 2.0 5.0 0.00 0.00 0.00 44 1016.8
20260505175312 79 132 2.0 7.0 0.00 0.00 0.00 44 1016.8
20260505174913 79 163 2.0 7.0 0.00 0.00 0.00 44 1016.9
20260505174711 79 154 2.0 8.0 0.00 0.00 0.00 44 1016.9
20260505174508 79 159 2.0 8.0 0.00 0.00 0.00 44 1016.9
20260505174306 78 128 2.0 8.0 0.00 0.00 0.00 44 1016.9
20260505173703 78 136 2.0 7.0 0.00 0.00 0.00 44 1016.7
20260505173504 78 145 2.0 6.0 0.00 0.00 0.00 44 1016.8
20260505173303 78 144 2.0 6.0 0.00 0.00 0.00 44 1016.9
20260505173103 78 92 2.0 5.0 0.00 0.00 0.00 44 1016.9
20260505172903 78 229 2.0 5.0 0.00 0.00 0.00 45 1016.9
20260505172704 78 107 2.0 5.0 0.00 0.00 0.00 46 1016.8
20260505172500 78 76 2.0 5.0 0.00 0.00 0.00 47 1016.9
20260505172057 78 54 2.0 6.0 0.00 0.00 0.00 46 1016.9
20260505171858 78 53 2.0 6.0 0.00 0.00 0.00 47 1016.9
20260505171657 77 78 2.0 6.0 0.00 0.00 0.00 47 1016.9
20260505171456 77 96 2.0 6.0 0.00 0.00 0.00 46 1016.9
20260505171255 77 92 2.0 6.0 0.00 0.00 0.00 49 1017.0
20260505171055 77 109 2.0 5.0 0.00 0.00 0.00 48 1016.9
20260505170855 77 14 2.0 5.0 0.00 0.00 0.00 47 1016.9
20260505170657 77 212 2.0 4.0 0.00 0.00 0.00 47 1017.0
20260505170456 77 304 1.0 4.0 0.00 0.00 0.00 47 1017.0
20260505170253 77 183 1.0 5.0 0.00 0.00 0.00 47 1017.1
20260505170053 77 58 2.0 10.0 0.00 0.00 0.00 48 1017.0
20260505165451 77 160 2.0 10.0 0.00 0.00 0.00 49 1017.1
20260505165248 77 76 2.0 10.0 0.00 0.00 0.00 49 1017.1
20260505165046 77 142 2.0 5.0 0.00 0.00 0.00 50 1017.2
20260505164846 77 162 2.0 5.0 0.00 0.00 0.00 48 1017.2
20260505164647 77 297 2.0 5.0 0.00 0.00 0.00 49 1017.3
20260505164445 77 230 2.0 5.0 0.00 0.00 0.00 50 1017.2
20260505164043 77 114 2.0 5.0 0.00 0.00 0.00 50 1017.4
20260505163840 76 177 2.0 5.0 0.00 0.00 0.00 49 1017.5
20260505163640 76 183 2.0 5.0 0.00 0.00 0.00 52 1017.4
20260505163436 76 92 2.0 5.0 0.00 0.00 0.00 52 1017.4
20260505163238 76 113 2.0 5.0 0.00 0.00 0.00 52 1017.4
20260505163037 76 160 2.0 5.0 0.00 0.00 0.00 53 1017.4
20260505162837 76 70 2.0 5.0 0.00 0.00 0.00 52 1017.4
20260505162633 76 50 2.0 5.0 0.00 0.00 0.00 53 1017.4
20260505162436 76 43 2.0 4.0 0.00 0.00 0.00 52 1017.5
20260505162235 76 200 2.0 6.0 0.00 0.00 0.00 53 1017.5
20260505162034 76 9 2.0 6.0 0.00 0.00 0.00 53 1017.5
20260505161834 76 223 2.0 6.0 0.00 0.00 0.00 52 1017.5
20260505161632 76 284 1.0 6.0 0.00 0.00 0.00 53 1017.6
20260505161432 76 344 2.0 6.0 0.00 0.00 0.00 53 1017.5
20260505161233 76 335 2.0 5.0 0.00 0.00 0.00 52 1017.6
20260505161032 76 355 2.0 5.0 0.00 0.00 0.00 52 1017.6
20260505160831 75 0 2.0 4.0 0.00 0.00 0.00 52 1017.6
20260505160231 75 142 2.0 5.0 0.00 0.00 0.00 55 1017.7
20260505153228 75 344 2.0 5.0 0.00 0.00 0.00 55 1017.9
20260505153026 75 134 2.0 5.0 0.00 0.00 0.00 56 1017.9
20260505152824 75 83 2.0 5.0 0.00 0.00 0.00 56 1017.9
20260505152422 74 151 2.0 4.0 0.00 0.00 0.00 55 1018.0
20260505152221 74 201 1.0 4.0 0.00 0.00 0.00 56 1017.9
20260505152021 74 131 1.0 4.0 0.00 0.00 0.00 57 1017.9
20260505151618 74 167 1.0 4.0 0.00 0.00 0.00 55 1017.9
20260505151420 74 145 1.0 4.0 0.00 0.00 0.00 56 1017.9
20260505151220 74 149 1.0 3.0 0.00 0.00 0.00 57 1017.9
20260505150818 74 76 1.0 4.0 0.00 0.00 0.00 58 1017.9
20260505150620 74 49 1.0 4.0 0.00 0.00 0.00 56 1017.9
20260505150417 74 204 1.0 4.0 0.00 0.00 0.00 56 1017.9
20260505150217 74 119 2.0 6.0 0.00 0.00 0.00 58 1017.9
20260505140549 73 62 1.0 4.0 0.00 0.00 0.00 63 1017.7
20260505140147 72 131 1.0 3.0 0.00 0.00 0.00 63 1017.8
20260505124930 59 49 1.0 2.0 0.00 0.00 0.00 86 1018.0
20260505124731 58 41 0.0 2.0 0.00 0.00 0.00 86 1018.0
20260505124528 58 289 0.0 2.0 0.00 0.00 0.00 86 1017.9
20260505123927 57 42 0.0 2.0 0.00 0.00 0.00 88 1018.0
20260505123727 57 42 0.0 2.0 0.00 0.00 0.00 88 1018.0
20260505123527 57 142 0.0 3.0 0.00 0.00 0.00 88 1018.0
20260505123324 56 142 0.0 3.0 0.00 0.00 0.00 88 1018.1
20260505123124 56 142 0.0 3.0 0.00 0.00 0.00 89 1018.1
20260505122926 56 142 0.0 3.0 0.00 0.00 0.00 89 1018.1
20260505122725 56 40 0.0 3.0 0.00 0.00 0.00 89 1018.0
20260505122524 56 38 0.0 2.0 0.00 0.00 0.00 89 1018.0
20260505122119 55 91 0.0 2.0 0.00 0.00 0.00 90 1018.0
20260505121918 55 91 0.0 2.0 0.00 0.00 0.00 90 1018.0
20260505121517 54 91 0.0 2.0 0.00 0.00 0.00 90 1018.1
20260505121117 54 91 0.0 2.0 0.00 0.00 0.00 90 1018.1
20260505120915 53 91 0.0 2.0 0.00 0.00 0.00 90 1018.1
20260505120714 53 90 0.0 2.0 0.00 0.00 0.00 91 1018.0
20260505120314 53 71 0.0 2.0 0.00 0.00 0.00 90 1018.1
20260505115914 53 72 0.0 2.0 0.00 0.00 0.00 90 1018.0
20260505115714 53 71 0.0 1.0 0.00 0.00 0.00 90 1018.0
20260505115311 52 71 0.0 1.0 0.00 0.00 0.00 90 1017.9
20260505115110 52 71 0.0 1.0 0.00 0.00 0.00 90 1017.8
20260505114907 52 71 0.0 1.0 0.00 0.00 0.00 90 1017.8
20260505114708 52 71 0.0 0.0 0.00 0.00 0.00 90 1017.7
20260505114504 52 71 0.0 0.0 0.00 0.00 0.00 90 1017.7
20260505114102 52 71 0.0 0.0 0.00 0.00 0.00 90 1017.8
20260505113904 52 71 0.0 0.0 0.00 0.00 0.00 90 1017.7
20260505113703 52 71 0.0 0.0 0.00 0.00 0.00 90 1017.8
20260505113504 52 71 0.0 0.0 0.00 0.00 0.00 90 1017.8
20260505113303 51 71 0.0 0.0 0.00 0.00 0.00 90 1017.8
20260505113102 51 71 0.0 0.0 0.00 0.00 0.00 90 1017.8
20260505112900 51 71 0.0 0.0 0.00 0.00 0.00 90 1017.8
20260505112659 51 71 0.0 0.0 0.00 0.00 0.00 90 1017.8
20260505112459 51 71 0.0 0.0 0.00 0.00 0.00 90 1017.8
20260505112259 51 71 0.0 0.0 0.00 0.00 0.00 89 1017.8
20260505112100 51 71 0.0 0.0 0.00 0.00 0.00 89 1017.8
20260505111656 51 71 0.0 0.0 0.00 0.00 0.00 89 1017.7
20260505111254 51 71 0.0 0.0 0.00 0.00 0.00 89 1017.7
20260505111057 51 71 0.0 0.0 0.00 0.00 0.00 89 1017.7
20260505110450 51 71 0.0 0.0 0.00 0.00 0.00 89 1017.8
20260505110246 51 71 0.0 0.0 0.00 0.00 0.00 89 1017.8
20260505102031 52 71 0.0 0.0 0.00 0.00 0.00 88 1017.1
20260505101826 52 71 0.0 0.0 0.00 0.00 0.00 88 1017.1
20260505101625 52 71 0.0 0.0 0.00 0.00 0.00 88 1017.2
20260505101426 52 71 0.0 0.0 0.00 0.00 0.00 88 1017.1
20260505101225 52 71 0.0 0.0 0.00 0.00 0.00 88 1017.1
20260505101023 52 71 0.0 0.0 0.00 0.00 0.00 88 1017.1
20260505100823 52 71 0.0 0.0 0.00 0.00 0.00 88 1017.1
20260505100624 52 71 0.0 0.0 0.00 0.00 0.00 88 1017.0
20260505100422 52 71 0.0 0.0 0.00 0.00 0.00 88 1017.0
20260505100223 52 71 0.0 0.0 0.00 0.00 0.00 88 1017.0
20260505095823 52 71 0.0 0.0 0.00 0.00 0.00 88 1017.0
20260505095623 52 71 0.0 0.0 0.00 0.00 0.00 88 1016.9
20260505095024 53 71 0.0 0.0 0.00 0.00 0.00 87 1016.8
20260505094823 53 71 0.0 0.0 0.00 0.00 0.00 87 1016.9
20260505094622 53 71 0.0 0.0 0.00 0.00 0.00 87 1016.9
20260505094422 53 71 0.0 0.0 0.00 0.00 0.00 87 1016.9
20260505094223 53 71 0.0 0.0 0.00 0.00 0.00 87 1016.8
20260505094023 53 71 0.0 0.0 0.00 0.00 0.00 87 1016.8
20260505093823 53 71 0.0 0.0 0.00 0.00 0.00 87 1016.8
20260505093624 53 71 0.0 0.0 0.00 0.00 0.00 87 1016.8
20260505093424 53 71 0.0 0.0 0.00 0.00 0.00 87 1016.7
20260505093225 53 71 0.0 0.0 0.00 0.00 0.00 87 1016.7
20260505093023 53 71 0.0 0.0 0.00 0.00 0.00 87 1016.7
20260505092824 53 71 0.0 0.0 0.00 0.00 0.00 87 1016.8
20260505092623 53 71 0.0 0.0 0.00 0.00 0.00 87 1016.7
20260505092423 53 71 0.0 0.0 0.00 0.00 0.00 86 1016.7
20260505092223 53 71 0.0 0.0 0.00 0.00 0.00 86 1016.7
20260505092022 53 71 0.0 0.0 0.00 0.00 0.00 86 1016.7
20260505091823 53 71 0.0 0.0 0.00 0.00 0.00 86 1016.6
20260505091623 54 71 0.0 0.0 0.00 0.00 0.00 86 1016.7
20260505091423 54 71 0.0 0.0 0.00 0.00 0.00 86 1016.6
20260505091023 54 71 0.0 0.0 0.00 0.00 0.00 86 1016.6
20260505090822 54 71 0.0 0.0 0.00 0.00 0.00 86 1016.5
20260505090624 54 71 0.0 0.0 0.00 0.00 0.00 85 1016.6
20260505090424 54 71 0.0 0.0 0.00 0.00 0.00 85 1016.6
20260505090222 54 71 0.0 0.0 0.00 0.00 0.00 85 1016.6
20260505090022 54 71 0.0 0.0 0.00 0.00 0.00 85 1016.6
20260505085824 54 71 0.0 0.0 0.00 0.00 0.00 85 1016.6
20260505085622 55 71 0.0 0.0 0.00 0.00 0.00 85 1016.6
20260505085424 55 71 0.0 0.0 0.00 0.00 0.00 85 1016.6
20260505085224 55 71 0.0 0.0 0.00 0.00 0.00 85 1016.6
20260505085024 55 71 0.0 0.0 0.00 0.00 0.00 85 1016.6
20260505084824 55 71 0.0 0.0 0.00 0.00 0.00 84 1016.5
20260505084224 55 71 0.0 0.0 0.00 0.00 0.00 84 1016.5
20260505084022 55 71 0.0 0.0 0.00 0.00 0.00 84 1016.5
20260505083823 55 71 0.0 0.0 0.00 0.00 0.00 84 1016.5
20260505083424 55 71 0.0 0.0 0.00 0.00 0.00 84 1016.5
20260505083222 56 71 0.0 0.0 0.00 0.00 0.00 83 1016.5
20260505083023 56 71 0.0 0.0 0.00 0.00 0.00 83 1016.5
20260505082623 56 71 0.0 0.0 0.00 0.00 0.00 83 1016.4
20260505082423 56 71 0.0 0.0 0.00 0.00 0.00 83 1016.5
20260505082222 56 71 0.0 0.0 0.00 0.00 0.00 82 1016.5
20260505082023 56 71 0.0 0.0 0.00 0.00 0.00 82 1016.4
20260505081623 56 71 0.0 0.0 0.00 0.00 0.00 82 1016.4
20260505081424 56 71 0.0 0.0 0.00 0.00 0.00 82 1016.4
20260505081223 57 71 0.0 0.0 0.00 0.00 0.00 81 1016.4
20260505081022 57 71 0.0 0.0 0.00 0.00 0.00 81 1016.3
20260505080824 57 71 0.0 0.0 0.00 0.00 0.00 81 1016.3
20260505080623 57 71 0.0 0.0 0.00 0.00 0.00 81 1016.3
20260505080222 57 71 0.0 0.0 0.00 0.00 0.00 81 1016.4
20260505080024 57 71 0.0 0.0 0.00 0.00 0.00 81 1016.4
20260505075823 57 71 0.0 0.0 0.00 0.00 0.00 81 1016.4
20260505075623 57 71 0.0 0.0 0.00 0.00 0.00 81 1016.4
20260505075423 58 71 0.0 0.0 0.00 0.00 0.00 80 1016.4
20260505075222 58 71 0.0 0.0 0.00 0.00 0.00 80 1016.4
20260505074624 58 71 0.0 0.0 0.00 0.00 0.00 79 1016.3
20260505074424 58 71 0.0 0.0 0.00 0.00 0.00 79 1016.3
20260505074223 58 71 0.0 0.0 0.00 0.00 0.00 79 1016.3
20260505074024 58 71 0.0 0.0 0.00 0.00 0.00 79 1016.2
20260505073824 58 71 0.0 0.0 0.00 0.00 0.00 79 1016.2
20260505073624 58 71 0.0 0.0 0.00 0.00 0.00 78 1016.2
20260505073424 58 71 0.0 0.0 0.00 0.00 0.00 79 1016.2
20260505073224 58 71 0.0 0.0 0.00 0.00 0.00 78 1016.2
20260505073022 58 71 0.0 1.0 0.00 0.00 0.00 78 1016.2
20260505072822 59 71 0.0 1.0 0.00 0.00 0.00 78 1016.2
20260505072624 59 71 0.0 1.0 0.00 0.00 0.00 78 1016.2
20260505072222 59 71 0.0 1.0 0.00 0.00 0.00 78 1016.2
20260505071822 59 71 0.0 1.0 0.00 0.00 0.00 77 1016.1
20260505071425 59 71 0.0 1.0 0.00 0.00 0.00 77 1015.9
20260505071222 60 71 0.0 1.0 0.00 0.00 0.00 76 1015.9
20260505071022 60 71 0.0 1.0 0.00 0.00 0.00 77 1015.9
20260505070826 60 71 0.0 1.0 0.00 0.00 0.00 76 1015.9
20260505070621 60 71 0.0 1.0 0.00 0.00 0.00 76 1016.1
20260505070419 60 71 0.0 1.0 0.00 0.00 0.00 76 1016.1
20260505070219 60 71 0.0 1.0 0.00 0.00 0.00 76 1015.9
20260505065813 60 71 0.0 0.0 0.00 0.00 0.00 75 1016.1
20260505065611 60 71 0.0 0.0 0.00 0.00 0.00 75 1016.1
20260505065410 61 71 0.0 1.0 0.00 0.00 0.00 75 1015.9
20260505065208 61 71 0.0 1.0 0.00 0.00 0.00 74 1015.9
20260505065005 61 71 0.0 1.0 0.00 0.00 0.00 75 1015.9
20260505064800 61 71 0.0 1.0 0.00 0.00 0.00 75 1015.9
20260505064603 61 71 0.0 1.0 0.00 0.00 0.00 74 1015.9
20260505064400 61 71 0.0 1.0 0.00 0.00 0.00 74 1015.9
20260505064159 61 71 0.0 1.0 0.00 0.00 0.00 74 1016.1
20260505063956 61 71 0.0 1.0 0.00 0.00 0.00 74 1015.9
20260505063756 61 71 0.0 0.0 0.00 0.00 0.00 74 1015.9
20260505063554 61 71 0.0 0.0 0.00 0.00 0.00 74 1015.9
20260505063354 61 71 0.0 1.0 0.00 0.00 0.00 74 1015.9
20260505063150 61 71 0.0 3.0 0.00 0.00 0.00 74 1015.9
20260505062144 62 72 0.0 4.0 0.00 0.00 0.00 74 1015.9
20260505061745 62 72 0.0 4.0 0.00 0.00 0.00 72 1015.9
20260505061543 62 71 0.0 4.0 0.00 0.00 0.00 72 1015.9
20260505061344 62 69 0.0 2.0 0.00 0.00 0.00 72 1015.9
20260505061143 62 69 0.0 2.0 0.00 0.00 0.00 72 1015.9
20260505060941 62 69 0.0 3.0 0.00 0.00 0.00 72 1015.9
20260505060740 62 69 0.0 3.0 0.00 0.00 0.00 72 1015.9
20260505060337 62 69 0.0 3.0 0.00 0.00 0.00 72 1015.9
20260505060136 62 69 1.0 3.0 0.00 0.00 0.00 72 1016.1
20260505055936 62 69 1.0 3.0 0.00 0.00 0.00 72 1015.9
20260505055737 62 69 0.0 3.0 0.00 0.00 0.00 72 1015.9
20260505055536 62 73 0.0 3.0 0.00 0.00 0.00 72 1015.9
20260505055332 62 74 0.0 3.0 0.00 0.00 0.00 72 1015.9
20260505055133 62 73 0.0 4.0 0.00 0.00 0.00 71 1016.1
20260505054930 62 74 1.0 4.0 0.00 0.00 0.00 72 1015.9
20260505054728 62 74 1.0 4.0 0.00 0.00 0.00 71 1015.9
20260505054528 62 73 1.0 4.0 0.00 0.00 0.00 71 1015.9
20260505053929 62 74 0.0 3.0 0.00 0.00 0.00 71 1015.8
20260505053727 62 76 0.0 2.0 0.00 0.00 0.00 71 1015.8
20260505053326 62 78 1.0 4.0 0.00 0.00 0.00 71 1015.8
20260505052922 62 78 1.0 4.0 0.00 0.00 0.00 71 1015.8
20260505052723 62 78 1.0 5.0 0.00 0.00 0.00 71 1015.8
20260505052522 62 78 1.0 5.0 0.00 0.00 0.00 71 1015.9
20260505052322 62 142 0.0 5.0 0.00 0.00 0.00 71 1015.9
20260505051921 62 78 0.0 5.0 0.00 0.00 0.00 71 1015.9
20260505051720 62 90 1.0 4.0 0.00 0.00 0.00 71 1016.1
20260505051522 62 90 1.0 4.0 0.00 0.00 0.00 71 1016.1
20260505051321 62 90 1.0 4.0 0.00 0.00 0.00 71 1016.1
20260505050917 62 92 1.0 4.0 0.00 0.00 0.00 72 1016.1
20260505050716 62 85 1.0 4.0 0.00 0.00 0.00 72 1015.9
20260505050514 62 111 1.0 4.0 0.00 0.00 0.00 72 1015.9
20260505050314 62 119 1.0 4.0 0.00 0.00 0.00 72 1015.9
20260505050110 62 119 1.0 4.0 0.00 0.00 0.00 72 1016.1
20260505041455 62 88 0.0 3.0 0.00 0.00 0.00 68 1016.1
20260505041254 62 88 0.0 3.0 0.00 0.00 0.00 68 1016.1
20260505041054 63 88 0.0 3.0 0.00 0.00 0.00 69 1016.1
20260505040855 63 94 0.0 3.0 0.00 0.00 0.00 68 1015.9
20260505040653 63 94 0.0 3.0 0.00 0.00 0.00 68 1016.1
20260505040450 63 93 0.0 3.0 0.00 0.00 0.00 68 1015.9
20260505040047 63 183 0.0 2.0 0.00 0.00 0.00 67 1016.1
20260505035844 63 183 0.0 2.0 0.00 0.00 0.00 68 1015.9
20260505035645 63 183 0.0 2.0 0.00 0.00 0.00 67 1016.1
20260505035444 63 183 0.0 2.0 0.00 0.00 0.00 67 1016.1
20260505035244 63 183 1.0 3.0 0.00 0.00 0.00 67 1016.1
20260505035042 63 228 1.0 3.0 0.00 0.00 0.00 67 1016.1
20260505034840 63 228 1.0 3.0 0.00 0.00 0.00 67 1016.1
20260505034641 63 228 1.0 3.0 0.00 0.00 0.00 67 1016.1
20260505034440 62 228 1.0 3.0 0.00 0.00 0.00 66 1016.1
20260505034239 62 321 1.0 3.0 0.00 0.00 0.00 66 1015.9
20260505034039 62 74 1.0 3.0 0.00 0.00 0.00 65 1016.1
20260505033840 62 74 1.0 3.0 0.00 0.00 0.00 66 1016.1
20260505033238 62 32 0.0 3.0 0.00 0.00 0.00 65 1016.1
20260505033037 62 243 0.0 0.0 0.00 0.00 0.00 65 1016.2
20260505032639 62 242 0.0 0.0 0.00 0.00 0.00 66 1016.1
20260505032438 62 242 0.0 0.0 0.00 0.00 0.00 65 1016.1
20260505032239 62 242 0.0 0.0 0.00 0.00 0.00 66 1016.1
20260505032037 62 242 0.0 0.0 0.00 0.00 0.00 64 1016.1
20260505031838 62 242 0.0 3.0 0.00 0.00 0.00 65 1016.1
20260505031637 62 242 0.0 3.0 0.00 0.00 0.00 65 1016.1
20260505031435 62 234 0.0 3.0 0.00 0.00 0.00 65 1016.1
20260505031235 62 234 0.0 3.0 0.00 0.00 0.00 64 1016.1
20260505031031 62 234 0.0 3.0 0.00 0.00 0.00 65 1016.1
20260505030829 62 112 0.0 1.0 0.00 0.00 0.00 65 1016.1
20260505030632 62 112 0.0 2.0 0.00 0.00 0.00 65 1016.1
20260505030430 62 112 0.0 2.0 0.00 0.00 0.00 65 1016.1
20260505030031 62 112 0.0 2.0 0.00 0.00 0.00 66 1016.1
20260505025829 62 112 0.0 2.0 0.00 0.00 0.00 66 1016.1
20260505025629 62 112 0.0 0.0 0.00 0.00 0.00 65 1016.1
20260505025429 62 112 0.0 1.0 0.00 0.00 0.00 65 1015.9
20260505025227 62 112 0.0 2.0 0.00 0.00 0.00 66 1015.9
20260505025025 62 112 0.0 2.0 0.00 0.00 0.00 66 1015.9
20260505024623 62 112 1.0 3.0 0.00 0.00 0.00 66 1015.9
20260505024422 62 112 0.0 3.0 0.00 0.00 0.00 67 1015.9
20260505024221 62 117 0.0 3.0 0.00 0.00 0.00 67 1015.8
20260505024021 62 140 0.0 3.0 0.00 0.00 0.00 65 1015.8
20260505023821 62 140 0.0 3.0 0.00 0.00 0.00 66 1015.8
20260505023620 62 64 0.0 0.0 0.00 0.00 0.00 66 1015.8
20260505023419 62 64 0.0 0.0 0.00 0.00 0.00 65 1015.8
20260505023219 62 64 0.0 0.0 0.00 0.00 0.00 65 1015.7
20260505023018 62 30 0.0 0.0 0.00 0.00 0.00 66 1015.8
20260505022818 62 29 0.0 0.0 0.00 0.00 0.00 66 1015.8
20260505022619 62 29 0.0 1.0 0.00 0.00 0.00 66 1015.8
20260505022420 62 29 0.0 1.0 0.00 0.00 0.00 66 1015.7
20260505022218 62 29 0.0 1.0 0.00 0.00 0.00 66 1015.7
20260505021816 62 29 0.0 1.0 0.00 0.00 0.00 66 1015.6
20260505021613 62 29 0.0 1.0 0.00 0.00 0.00 66 1015.7
20260505021412 62 29 0.0 2.0 0.00 0.00 0.00 66 1015.6
20260505021212 62 29 0.0 2.0 0.00 0.00 0.00 66 1015.6
20260505021011 62 29 0.0 2.0 0.00 0.00 0.00 66 1015.6
20260505020810 62 29 0.0 2.0 0.00 0.00 0.00 66 1015.6
20260505020610 62 29 0.0 2.0 0.00 0.00 0.00 66 1015.6
20260505020408 62 28 0.0 1.0 0.00 0.00 0.00 66 1015.6
20260505020206 62 28 0.0 1.0 0.00 0.00 0.00 65 1015.6
20260505020007 62 28 0.0 1.0 0.00 0.00 0.00 66 1015.6
20260505015606 62 28 0.0 1.0 0.00 0.00 0.00 65 1015.6
20260505015406 62 28 0.0 1.0 0.00 0.00 0.00 64 1015.6
20260505015205 62 28 0.0 1.0 0.00 0.00 0.00 65 1015.6
20260505014800 62 28 0.0 1.0 0.00 0.00 0.00 64 1015.6
20260505014600 62 28 0.0 1.0 0.00 0.00 0.00 64 1015.5
20260505014156 62 28 0.0 1.0 0.00 0.00 0.00 64 1015.4
20260505013954 62 28 0.0 1.0 0.00 0.00 0.00 63 1015.4
20260505013550 62 28 0.0 1.0 0.00 0.00 0.00 62 1015.4
20260505013351 62 28 0.0 1.0 0.00 0.00 0.00 62 1015.3
20260505012746 63 28 0.0 1.0 0.00 0.00 0.00 62 1015.2
20260505012548 63 28 0.0 1.0 0.00 0.00 0.00 61 1015.2
20260505012347 63 28 0.0 1.0 0.00 0.00 0.00 61 1015.2
20260505011946 64 28 0.0 0.0 0.00 0.00 0.00 60 1015.1
20260505011745 64 28 0.0 0.0 0.00 0.00 0.00 60 1015.1
20260505011542 64 28 0.0 0.0 0.00 0.00 0.00 59 1015.1
20260505011341 64 28 0.0 0.0 0.00 0.00 0.00 59 1015.1
20260505010736 65 28 0.0 0.0 0.00 0.00 0.00 59 1015.1
20260505010337 65 28 0.0 0.0 0.00 0.00 0.00 58 1015.1
20260505010136 65 28 0.0 0.0 0.00 0.00 0.00 57 1015.0
20260505005935 65 28 0.0 0.0 0.00 0.00 0.00 57 1014.9
20260505005733 66 28 0.0 0.0 0.00 0.00 0.00 58 1014.9
20260505005534 66 28 0.0 0.0 0.00 0.00 0.00 56 1014.9
20260505005330 66 28 0.0 0.0 0.00 0.00 0.00 56 1014.8
20260505005130 66 28 0.0 0.0 0.00 0.00 0.00 56 1014.8
20260505004926 67 28 0.0 0.0 0.00 0.00 0.00 56 1014.7
20260505004524 67 28 0.0 0.0 0.00 0.00 0.00 55 1014.7
20260505004324 67 28 0.0 0.0 0.00 0.00 0.00 54 1014.7
20260505004125 67 28 0.0 0.0 0.00 0.00 0.00 54 1014.6
20260505003925 68 28 0.0 0.0 0.00 0.00 0.00 53 1014.6
20260505003725 68 28 0.0 0.0 0.00 0.00 0.00 53 1014.6